Location: Devargunta
(16.7631°N, 80.9077°E)
Time: 15:46:21
(UTC+00:00)

Cosmos 540 Rocket - Pass Details

Date: 01 December 2021
Orbit: 739 x 754 km, 74.1° (Epoch: 17 January)

Event Time Altitude Azimuth Distance (km) Brightness Sun altitude
Rises 12:35:16 0° 213° (SSW) 3,166 7.7 -8.4°
Reaches altitude 10° 12:37:50 10° 223° (SW) 2,243 7.0 -8.9°
Maximum altitude 12:42:20 32° 286° (WNW) 1,244 5.2 -9.9°
Drops below altitude 10° 12:46:52 10° 349° (N) 2,242 5.8 -11.0°
Sets 12:49:26 0° 359° (N) 3,166 6.5 -11.5°
